Location: Gönnheim
(49.4488°N, 8.2383°E)
Time: 00:34:10
(UTC+00:00)

Cosmos 2150 Rocket - Pass Details

Date: 19 May 2025
Orbit: 745 x 804 km, 74.0° (Epoch: 15 June)

Event Time Altitude Azimuth Distance (km) Brightness Sun altitude
Rises 21:33:22 0° 333° (NNW) 3,294 9.1 -16.4°
Reaches altitude 10° 21:35:47 10° 330° (NNW) 2,369 7.9 -16.6°
Maximum altitude 21:41:05 59° 252° (WSW) 924 4.4 -16.9°
Enters shadow 21:44:07 25° 182° (S) 1,555 5.1 -17.1°
